Tracking 29892 objects as of 21-Nov-2024
HD Live streaming from Space Station
objects crossing your sky now

STARLINK-6231

Track STARLINK-6231 now!
10-day predictions
STARLINK-6231 is classified as:


NORAD ID: 56779
Int'l Code: 2023-078N
Perigee: 577.2 km
Apogee: 581.2 km
Inclination: 70.0 °
Period: 96.1 minutes
Semi major axis: 6950 km
RCS: Unknown
Launch date: May 31, 2023
Source: United States (US)
Launch site: AIR FORCE WESTERN TEST RANGE (AFWTR)
Your satellite tracking list
Your tracking list is empty




NASA's NSSDC Master Catalog

Two Line Element Set (TLE):
1 56779U 23078N   24325.76232042  .00001489  00000-0  13252-3 0  9994
2 56779  69.9998  79.3999 0002919 271.7312  88.3512 14.98333183 82174
Source of the keplerian elements: AFSPC